Location: Casilda
(33.0440°S, 61.1680°W)
Time: 01:02:26
(UTC-03:00)

ISS - Pass Details

Date: 12 May 2021
Orbit: 417 x 422 km, 51.6° (Epoch: 12 May)

Event Time Altitude Azimuth Distance (km) Brightness Sun altitude
Rises 18:56:04 0° 242° (WSW) 2,386 0.8 -8.9°
Reaches altitude 10° 18:58:32 10° 259° (WSW) 1,513 0.2 -9.4°
Maximum altitude 19:01:06 20° 308° (NW) 1,034 -0.8 -9.9°
Drops below altitude 10° 19:03:39 10° 357° (N) 1,496 -0.7 -10.4°
Sets 19:06:05 0° 15° (NNE) 2,350 0.1 -10.9°
